Wind_Speed
64 65 65 66 66 67 67 68 68 68 69 69 70 70 71 72 73 74 75 76 77 79 80 80 81 82 82 83 84 85 85 86 86 87 86 87 87 87 88 88 88 89 90 91 93 94 96 97 99 100 102 103 105 106 107 108 108 108 106 105 104 105 108 113 114 113 112 111 112 113 113 112 111 110 108 106 105 103 103 101 99 100 100 100 98 96 96 96
58 58 58 58 59 59 59 59 59 59 59 60 60 61 62 63 64 65 66 68 69 71 72 74 75 77 78 80 81 82 83 84 85 85 86 86 87 87 87 87 86 87 88 89 90 91 92 93 95 96 98 99 100 102 103 104 105 104 104 103 103 106 111 114 114 112 111 110 111 111 110 110 108 107 107 106 105 104 103 102 101 101 102 101 98 96 95 95
51 50 50 50 50 51 51 51 50 50 50 51 52 53 53 54 55 57 58 59 61 62 64 65 67 70 72 74 76 78 79 81 82 83 84 85 85 85 86 86 85 86 86 87 88 88 89 90 92 93 94 95 96 98 99 100 100 100 100 100 102 107 111 112 110 109 108 107 107 108 108 107 105 105 105 105 105 105 104 103 102 103 101 99 97 96 95 95
44 43 43 43 44 43 43 43 43 43 44 44 45 46 46 47 48 49 50 52 53 54 56 58 60 62 64 67 69 72 73 75 77 79 80 81 82 83 83 84 84 84 84 85 86 86 87 88 89 89 90 91 92 94 94 95 96 96 96 98 102 105 106 106 106 106 106 105 105 105 106 106 105 106 105 104 104 105 106 104 104 103 100 97 96 96 95 94
38 38 38 38 38 38 38 38 38 38 39 39 39 39 40 41 42 43 44 45 46 47 49 51 53 55 57 60 62 64 66 68 71 73 75 77 78 79 80 81 81 82 82 83 84 84 85 85 86 87 88 88 89 90 90 92 92 91 92 95 98 100 101 102 103 102 103 103 102 102 102 103 104 105 105 104 103 104 104 102 101 99 98 97 96 95 94 94
34 34 34 34 33 34 34 34 34 34 34 34 34 34 34 34 35 36 37 39 40 41 43 44 46 49 51 53 55 57 59 61 64 67 69 71 73 74 76 77 78 79 80 80 81 82 83 83 84 85 85 86 86 87 87 88 89 88 90 92 94 96 97 97 97 97 97 98 98 98 98 99 100 103 105 105 103 101 100 98 97 96 97 96 94 93 92 91
32 32 31 31 31 31 31 31 30 30 30 29 29 29 29 29 30 31 32 33 34 36 37 39 41 43 45 47 48 51 53 55 58 60 62 64 66 69 70 72 74 75 76 77 78 79 79 80 81 82 82 83 83 84 84 85 85 86 87 89 90 92 92 92 92 92 93 94 94 94 94 97 100 102 102 101 100 100 98 95 94 94 94 92 90 90 89 87
31 30 30 29 28 28 28 27 27 26 26 26 26 25 25 26 26 27 27 28 30 31 32 34 36 38 39 41 43 45 47 49 52 54 56 58 60 62 64 66 68 70 71 72 73 74 75 76 77 78 79 79 80 81 82 83 84 85 86 87 88 88 89 89 89 90 90 90 90 92 95 97 99 98 96 95 96 96 94 92 91 90 89 88 87 87 87 85
30 29 29 28 26 26 25 24 23 23 23 23 24 24 24 24 25 25 25 26 27 28 29 31 32 33 35 36 38 40 42 44 46 48 50 52 54 56 58 60 62 64 65 66 68 69 70 71 72 73 74 76 77 78 79 80 81 83 83 84 85 85 86 86 87 87 86 88 90 93 95 95 94 93 91 90 91 91 91 90 89 87 85 85 84 84 85 84
30 29 28 27 26 25 24 24 23 23 24 24 24 24 25 25 25 25 25 26 27 27 28 29 30 31 32 33 35 36 38 40 41 43 45 47 48 50 52 54 56 57 58 60 62 63 64 65 66 68 69 71 73 74 75 75 77 79 80 80 81 81 82 82 82 83 86 89 91 91 92 91 90 90 90 88 87 89 89 87 85 82 80 81 80 80 81 82
30 29 29 28 27 26 26 26 26 26 26 27 26 26 26 26 26 26 26 26 27 27 28 29 29 30 30 31 32 34 35 36 38 39 40 42 43 45 46 48 49 50 52 53 55 56 57 59 60 62 64 66 67 68 69 71 73 74 75 76 77 78 78 78 79 83 87 89 87 86 86 86 86 88 88 86 85 86 85 82 79 76 76 77 77 76 76 77
30 30 29 29 28 28 28 28 28 28 28 28 28 28 28 28 28 27 27 27 27 28 28 29 29 29 30 31 31 32 33 34 35 36 37 38 39 40 41 42 43 44 46 47 48 49 50 52 54 55 57 59 60 61 63 66 66 67 69 71 72 72 72 74 77 80 83 83 82 81 80 82 83 85 86 84 81 80 79 76 73 72 73 73 72 71 71 72
31 31 30 30 29 29 29 29 29 30 30 29 29 29 29 29 29 29 29 29 29 29 30 30 30 30 31 31 31 32 33 33 34 34 35 35 36 37 37 38 38 39 40 41 42 43 44 45 47 49 51 52 54 55 57 58 59 61 63 65 65 65 66 69 72 73 74 75 76 75 75 77 79 80 81 79 76 73 72 70 69 71 71 69 68 67 66 67
31 31 31 31 31 31 31 30 31 31 31 31 31 31 30 30 30 30 30 31 31 31 32 32 32 32 33 33 33 33 34 34 34 34 34 34 35 35 35 35 35 36 36 37 37 38 39 40 42 43 44 45 47 49 50 51 52 54 55 57 57 58 61 63 64 66 66 66 69 69 69 70 72 73 73 73 71 67 64 63 65 67 66 65 64 64 63 63
31 31 31 31 31 31 31 31 31 31 31 31 32 31 31 31 31 32 32 32 33 34 34 34 34 34 34 35 35 35 36 35 35 35 36 35 35 35 35 34 34 35 35 35 35 35 35 36 37 38 38 40 41 42 43 44 46 46 48 49 50 51 53 55 55 57 58 58 60 61 61 62 63 64 65 65 64 62 59 58 59 60 60 60 59 59 59 59
31 31 31 31 31 31 31 30 30 30 31 31 31 31 32 32 32 32 33 33 34 35 35 35 36 35 36 37 37 37 38 37 37 37 37 37 37 36 36 35 35 35 35 35 34 34 33 33 34 35 35 36 37 37 37 38 39 39 40 41 41 43 45 47 47 49 51 51 51 53 54 56 57 57 58 57 56 56 55 54 53 53 54 54 53 53 52 52
30 31 31 31 31 31 30 30 30 30 30 30 31 32 32 32 33 33 33 33 34 35 35 36 37 36 37 38 39 39 38 37 38 39 39 39 39 38 37 37 37 37 36 35 34 34 33 33 32 32 33 34 35 35 34 34 33 32 34 35 35 37 40 42 43 43 45 45 45 46 47 50 51 50 51 52 51 51 50 49 47 47 48 48 47 47 46 46
30 31 31 31 31 31 30 30 29 29 30 30 31 32 33 33 33 33 33 34 35 35 36 37 37 37 39 40 41 40 38 38 39 39 39 40 40 40 39 39 39 39 38 36 35 34 34 33 33 32 31 32 32 32 32 31 29 29 31 33 33 34 37 38 37 35 35 36 37 37 38 43 45 42 43 46 45 45 44 43 42 42 43 43 42 42 42 42
30 31 31 31 31 30 30 29 29 29 30 30 31 31 32 32 32 32 32 33 33 34 35 36 36 38 40 41 41 39 39 39 40 40 40 41 41 41 41 40 41 40 39 38 36 35 35 36 35 34 32 30 29 30 30 29 30 30 31 32 32 33 33 32 31 29 28 28 30 32 34 40 42 39 39 41 40 39 38 37 37 38 39 39 39 38 38 38
30 31 31 31 31 30 30 30 29 30 30 30 30 30 30 30 30 30 30 30 31 32 32 33 34 36 38 40 39 39 39 40 41 41 41 42 42 42 42 42 42 42 41 39 37 37 38 39 38 36 33 31 30 31 31 31 31 32 32 31 31 32 31 29 29 28 28 28 28 28 30 36 41 37 35 36 36 35 35 34 33 34 34 35 35 35 35 34
31 31 31 31 31 30 30 30 30 30 30 30 30 29 29 29 28 28 28 29 29 29 30 30 31 33 35 36 35 35 37 39 41 43 42 42 42 42 42 43 43 43 42 40 39 40 41 41 40 36 34 34 34 35 35 34 34 34 33 32 32 33 31 30 29 29 29 28 27 26 27 34 38 37 35 35 34 33 33 32 31 31 31 31 31 31 32 32
32 32 32 31 31 31 31 31 31 31 30 30 30 29 29 28 28 28 28 28 28 28 29 29 30 31 32 33 31 31 34 37 39 41 42 42 41 42 43 43 43 43 42 42 42 42 44 43 40 38 37 38 38 37 38 38 37 37 36 35 35 34 34 32 30 29 29 29 29 27 29 35 37 39 41 39 34 32 31 29 31 34 34 33 32 31 31 30
34 34 33 33 33 32 32 32 32 31 31 30 30 30 30 29 29 28 28 28 28 28 28 28 29 30 30 30 30 29 30 34 37 38 38 39 40 42 44 43 43 43 43 44 43 43 45 44 42 40 40 41 40 40 41 41 41 41 40 39 38 38 36 34 31 31 29 29 30 30 32 36 37 40 45 43 39 35 33 30 32 37 38 36 35 33 31 31
36 36 35 35 35 34 34 34 33 32 32 31 32 31 31 30 30 29 29 30 29 29 29 29 29 29 29 29 29 29 29 32 35 35 34 35 38 41 42 43 43 44 44 44 43 43 45 45 43 42 42 43 43 42 42 44 45 45 43 42 42 42 40 37 35 34 32 31 32 32 33 35 39 42 45 47 45 40 37 34 34 39 40 37 36 35 34 33
38 38 38 38 37 37 36 36 35 34 33 33 33 33 32 32 32 31 32 32 31 31 31 30 30 30 29 29 30 29 30 32 34 33 32 32 35 38 40 41 42 44 44 43 42 42 44 45 44 44 44 44 44 43 43 45 47 47 46 45 45 44 43 42 40 37 37 36 37 37 35 36 41 44 46 49 47 42 40 39 38 41 42 39 37 37 37 35
40 40 40 40 40 39 39 38 38 37 36 35 35 34 34 34 34 34 34 34 34 34 33 32 32 32 32 31 31 31 32 34 33 34 34 32 33 35 37 38 40 42 42 41 40 42 44 45 45 44 45 45 45 45 45 46 47 47 48 47 46 47 47 46 44 41 41 41 42 42 40 39 42 47 50 49 45 44 44 43 42 43 43 41 39 39 39 38
41 42 41 41 41 41 41 41 40 39 38 38 37 36 36 36 36 36 36 37 37 37 36 35 35 35 34 34 34 33 34 35 35 36 36 34 34 36 36 37 39 40 39 38 39 42 44 45 45 45 46 46 47 47 47 47 46 47 48 48 47 48 49 48 47 45 44 44 45 46 46 43 43 49 54 49 44 47 49 46 46 45 45 44 43 43 43 42
42 42 42 43 43 43 43 43 42 41 41 40 39 39 38 38 38 38 38 39 40 40 38 38 38 38 37 37 37 36 36 37 38 39 38 36 37 38 38 38 39 39 37 37 39 41 41 43 44 45 46 47 48 49 49 47 47 48 49 49 49 49 50 50 49 48 46 45 47 50 51 46 44 52 56 51 49 51 52 50 49 48 48 49 48 47 47 46
43 43 43 43 43 44 44 44 44 43 42 41 41 41 40 40 40 40 40 41 42 42 41 41 41 41 41 40 40 40 40 40 41 42 42 41 41 41 41 41 41 41 39 39 41 41 40 41 42 43 46 47 49 50 49 47 48 49 49 50 51 51 51 51 50 50 49 46 48 52 52 46 45 53 56 54 55 55 54 53 52 53 53 52 52 52 51 49
43 43 43 43 43 44 44 44 44 44 43 43 42 42 42 42 41 41 42 43 43 43 43 44 44 44 44 44 43 43 44 44 43 45 46 45 45 45 45 44 44 44 43 42 44 43 41 41 42 44 46 48 49 50 49 48 48 50 51 51 52 53 53 52 51 52 50 49 52 54 51 46 45 52 56 55 56 56 55 55 55 56 56 55 55 56 55 53
43 43 43 43 43 44 44 44 44 44 44 43 43 43 43 43 42 42 43 43 44 44 44 45 46 46 46 46 46 45 46 46 45 46 48 48 48 48 48 47 47 48 47 46 47 46 44 44 44 46 48 50 50 50 50 48 49 51 52 52 53 54 54 53 53 53 52 52 55 55 52 48 46 53 58 57 57 58 57 57 57 57 58 57 58 59 58 56
42 42 42 42 43 43 43 43 43 43 43 43 43 43 43 43 43 43 44 44 44 45 45 46 47 47 47 47 47 47 47 47 46 48 49 50 50 50 50 50 50 51 49 48 48 48 48 49 49 50 52 53 52 52 52 51 52 53 53 53 55 55 55 55 55 55 53 54 57 56 53 50 49 54 61 60 59 60 59 59 58 58 59 59 59 60 60 59
40 40 41 41 41 42 42 42 42 42 43 43 43 43 43 43 43 44 45 45 46 46 46 47 48 49 49 49 48 48 48 48 48 49 50 51 51 52 52 52 51 52 51 50 50 50 51 53 53 53 55 55 55 56 56 56 56 56 56 56 58 58 59 59 59 58 55 54 56 56 53 51 52 56 61 63 62 62 62 62 60 60 61 60 60 60 61 60
38 39 39 39 40 40 41 41 41 41 42 42 42 43 43 43 44 45 46 46 47 47 47 48 49 50 50 50 50 49 49 50 50 50 51 52 52 53 54 54 53 52 51 51 51 51 52 54 56 56 56 57 58 59 60 59 58 59 59 60 61 63 64 63 63 61 58 56 56 57 56 54 55 58 61 64 65 64 64 64 64 63 63 61 61 60 59 60
38 38 39 39 39 40 40 40 41 41 41 41 42 43 43 42 43 46 46 46 47 48 48 48 48 50 51 52 51 50 51 52 51 51 52 52 53 53 54 54 54 53 53 52 52 52 53 55 57 58 57 57 59 61 61 61 61 62 62 62 64 66 67 66 66 64 61 59 58 59 60 59 59 62 64 66 67 67 67 67 67 65 63 61 61 60 58 60
38 38 38 39 39 39 40 40 40 41 41 41 41 42 42 42 43 46 48 46 47 49 50 49 49 50 51 52 52 50 51 52 51 50 51 51 51 52 53 52 52 51 51 51 51 52 53 55 58 58 57 58 59 60 61 61 63 63 63 64 66 69 70 68 66 65 64 62 60 61 63 63 63 65 68 70 71 71 70 69 69 68 65 63 63 60 59 61
39 39 39 39 40 39 40 40 40 41 41 41 42 42 43 43 44 47 50 48 47 48 49 48 48 49 48 49 50 48 48 49 48 47 48 48 47 48 49 49 48 47 46 46 47 47 49 51 54 55 55 57 58 59 59 61 62 63 64 66 68 70 70 68 66 66 65 63 62 63 65 65 66 68 71 74 75 74 73 72 71 71 70 68 67 64 63 64
40 39 39 40 40 39 40 40 40 41 42 43 43 43 44 44 44 46 49 47 46 46 46 45 45 46 46 46 47 47 45 45 45 44 44 45 45 44 45 45 43 42 41 41 41 43 45 46 48 50 51 52 54 55 56 57 58 59 62 65 66 68 68 68 67 65 64 64 63 64 65 65 67 70 72 74 75 74 74 74 74 73 73 73 72 69 68 69
40 39 40 40 41 41 41 42 42 43 44 44 45 44 44 43 43 43 45 45 45 45 43 43 43 44 44 44 44 45 44 42 42 41 40 41 42 42 42 42 41 39 38 38 38 39 41 42 43 46 48 48 49 51 52 54 54 54 56 59 61 63 65 66 66 65 63 62 62 62 62 62 65 69 72 74 75 74 74 74 74 74 74 75 75 74 73 74
41 40 40 41 42 43 43 43 43 44 44 43 43 43 42 42 42 41 42 43 44 45 43 42 41 41 41 41 41 41 42 42 41 40 39 38 38 39 40 41 41 39 37 37 37 38 39 39 40 44 48 48 48 50 51 52 53 54 54 56 57 60 63 63 62 61 61 60 60 59 57 57 61 66 70 73 74 73 73 74 75 75 75 76 77 77 76 77
42 41 42 42 44 44 43 43 42 42 42 41 41 41 41 41 42 41 41 42 42 43 43 42 41 40 39 39 39 39 40 41 41 41 40 40 39 38 38 39 41 41 39 38 38 39 40 40 39 42 46 48 48 51 52 52 54 55 55 56 57 59 61 60 59 58 60 60 60 59 55 53 58 65 69 71 71 71 72 73 74 75 75 76 77 77 78 78
41 42 42 43 43 42 41 41 41 40 40 39 40 41 40 41 42 41 41 41 41 40 40 41 41 41 40 40 40 40 40 39 40 41 42 43 42 41 39 39 40 42 42 42 42 42 43 42 42 42 44 47 49 52 54 55 56 57 56 56 56 58 59 60 59 58 60 60 59 59 55 49 54 64 68 69 70 71 71 71 72 74 74 75 76 77 78 78
40 40 41 43 42 39 39 40 39 38 38 39 40 41 40 40 41 40 40 40 39 39 39 40 40 40 40 41 42 42 41 39 39 42 43 44 46 46 43 41 41 42 44 46 46 45 45 45 44 44 45 47 49 51 55 57 58 57 57 56 55 57 59 60 59 58 59 59 57 59 55 47 51 61 65 68 70 70 70 70 71 72 72 73 74 76 77 78
38 37 39 41 40 37 37 38 39 39 39 39 40 39 39 39 40 39 39 38 38 39 40 41 41 41 41 41 43 43 43 40 40 43 45 46 48 49 48 45 45 46 48 49 49 48 48 48 47 47 48 48 49 52 55 59 60 58 57 57 57 58 60 60 61 60 59 57 57 59 53 47 51 60 64 66 68 69 70 69 69 70 71 71 73 75 77 77
36 36 37 39 39 37 37 37 38 39 38 38 38 37 37 38 38 38 39 39 38 38 40 41 42 42 42 43 43 44 44 43 42 43 46 48 49 52 52 50 49 51 53 53 51 50 50 51 50 50 50 50 51 55 57 59 60 58 58 59 60 62 63 63 63 62 59 57 58 58 53 49 53 58 62 65 66 68 69 69 69 69 69 69 71 73 75 76
34 35 37 38 38 37 37 37 36 36 36 36 37 37 37 37 38 38 39 40 39 39 40 42 42 43 44 44 44 45 46 46 45 44 46 48 50 53 55 55 54 55 56 55 55 53 52 52 52 53 52 52 54 56 58 59 60 60 60 60 62 66 68 67 66 63 61 61 59 57 56 53 52 56 62 65 66 66 67 68 68 68 67 67 68 70 71 73
34 35 37 38 37 36 36 35 34 34 35 35 36 37 38 38 39 39 40 41 41 40 41 42 42 43 44 45 46 47 47 48 47 47 47 48 51 54 57 58 58 59 59 58 57 56 55 54 55 55 55 56 57 58 59 60 61 62 62 61 63 68 71 70 68 66 66 66 61 58 61 58 52 55 63 66 66 65 65 66 67 68 67 66 66 67 69 71
34 34 35 36 36 35 34 34 34 34 36 36 35 36 38 38 39 40 41 43 44 44 44 44 43 43 45 47 49 49 49 49 49 49 50 51 53 55 57 60 62 62 62 61 60 59 57 57 58 59 59 60 61 61 61 61 62 62 62 63 65 70 72 71 70 69 70 70 65 63 65 62 54 56 64 66 66 66 66 66 66 67 67 67 67 67 68 70
33 32 33 34 35 35 35 35 35 36 37 37 36 37 38 40 41 41 42 45 47 47 47 47 46 46 47 49 51 51 51 51 51 52 54 54 55 57 59 62 64 65 65 65 64 63 61 60 62 62 61 62 63 63 64 64 63 61 61 63 66 70 71 72 72 73 73 73 70 67 66 62 58 60 65 67 66 66 67 66 66 66 67 68 69 70 70 70
31 32 33 35 36 37 37 37 38 38 39 39 38 40 42 42 43 44 45 47 48 49 51 51 50 50 50 51 52 53 53 53 53 55 56 58 58 59 61 63 65 68 68 68 68 67 65 64 64 64 63 63 63 63 64 65 65 62 60 63 67 68 71 73 74 75 76 75 72 70 67 63 63 65 66 67 67 68 68 68 67 68 68 68 69 70 69 69
33 34 35 37 38 39 39 40 41 41 42 42 42 44 46 46 46 46 47 48 50 52 54 54 53 53 54 54 55 55 55 56 56 57 59 60 60 61 61 62 65 68 70 71 71 70 68 67 67 67 65 64 64 63 63 65 65 62 61 64 68 70 72 74 75 76 76 75 74 73 70 67 66 68 68 68 69 69 69 69 68 68 68 68 69 68 67 67
35 36 37 39 41 42 42 43 44 44 44 45 46 48 49 49 48 48 49 51 53 56 56 56 56 56 57 58 58 57 57 58 59 59 59 60 60 61 62 63 65 67 69 72 74 74 73 71 70 70 69 67 66 65 65 67 64 59 60 66 70 73 74 74 74 75 75 75 75 74 73 71 70 70 70 70 70 70 70 69 68 68 68 68 68 68 67 66
Wind_Direction
264 264 264 264 264 264 263 263 263 263 262 262 261 261 260 259 259 258 257 256 256 255 254 254 253 253 252 252 251 251 251 250 250 250 251 251 251 252 252 252 253 253 254 254 255 255 255 256 256 257 257 257 258 258 259 259 260 260 261 261 261 261 261 261 262 263 264 265 266 267 269 270 271 272 272 272 272 272 271 271 271 270 270 271 271 272 273 275
263 263 263 263 263 262 262 262 262 261 260 260 259 259 258 257 257 256 256 255 254 254 253 253 252 251 251 250 250 250 250 250 250 250 250 251 251 252 252 253 253 254 254 254 255 255 255 256 256 257 257 257 258 258 259 259 260 260 260 261 261 261 261 262 263 264 265 266 267 268 269 270 271 272 272 271 271 271 271 271 271 270 271 272 273 273 274 274
262 262 261 261 261 261 261 260 260 259 258 257 257 256 255 255 255 254 254 254 253 253 252 251 251 250 249 249 248 248 248 249 249 249 250 250 251 252 252 253 253 254 254 255 255 255 256 256 256 257 257 258 258 258 259 259 259 260 260 260 260 261 262 263 264 265 265 266 267 268 268 269 270 270 270 270 271 271 271 271 271 271 272 272 273 273 272 272
260 260 260 260 260 260 259 259 258 257 256 255 254 254 254 253 253 253 252 252 252 251 251 250 250 249 248 248 248 247 247 248 248 248 249 250 250 251 252 253 254 254 255 255 255 256 256 256 257 257 257 258 258 258 259 259 259 260 260 260 261 262 263 264 264 264 265 265 266 267 268 268 268 269 269 269 270 270 270 271 271 272 272 272 272 272 272 271
259 260 260 261 261 260 260 259 258 256 255 254 253 253 253 252 252 251 251 251 250 250 249 249 249 248 248 248 247 247 247 247 248 248 249 249 250 251 252 253 253 254 255 255 256 256 256 257 257 257 257 258 258 259 259 260 260 260 260 261 262 262 263 263 264 264 265 266 266 267 267 268 268 268 268 268 269 270 271 271 272 272 271 271 271 271 270 270
260 261 261 261 262 261 260 259 258 257 255 254 253 253 252 252 251 251 250 249 249 248 248 247 247 247 247 247 247 247 247 247 247 248 249 249 250 251 251 252 253 254 255 255 256 256 257 257 257 258 258 258 259 259 260 260 260 260 260 261 262 262 263 263 264 264 265 265 265 266 266 266 266 266 266 268 269 269 270 270 271 271 271 271 270 270 269 269
260 261 261 261 262 261 261 259 257 256 255 254 253 252 252 251 250 250 249 249 248 247 247 247 247 247 247 247 247 247 247 247 248 249 249 250 250 251 252 252 253 254 255 256 256 257 258 258 258 259 259 259 259 259 260 260 260 260 260 261 261 262 262 263 263 263 263 264 264 265 264 263 263 265 267 268 268 268 268 269 269 269 270 270 269 268 267 268
260 260 260 260 260 261 260 258 255 254 253 253 253 252 252 252 251 250 249 248 247 247 247 246 246 247 247 247 247 247 248 248 249 249 250 250 251 252 253 253 254 255 255 256 257 257 258 258 259 259 259 260 259 259 259 260 259 259 260 260 261 261 262 262 262 262 263 263 263 262 261 261 263 265 267 268 268 268 268 267 267 267 268 268 267 267 267 267
259 258 258 258 258 258 257 255 253 252 253 253 253 253 253 253 253 252 251 250 248 247 247 247 247 247 247 247 247 248 248 248 249 250 250 251 252 253 253 254 255 256 256 257 257 258 258 259 259 259 259 259 259 259 260 260 260 260 260 260 261 261 261 261 261 262 261 261 260 260 261 262 264 265 265 265 266 266 266 266 266 266 267 267 266 267 267 267
257 255 255 255 255 254 254 253 252 252 254 255 255 255 255 254 254 253 253 252 251 250 249 248 248 247 247 247 247 248 248 249 249 250 251 252 252 253 254 255 256 256 257 257 258 258 258 259 259 259 259 259 259 259 259 259 259 260 260 260 260 260 260 260 260 260 259 259 259 260 262 263 263 263 263 263 263 264 265 266 266 267 266 265 266 266 267 267
256 254 253 253 253 253 253 253 254 255 256 257 258 258 257 256 255 255 254 254 253 252 251 251 250 249 249 248 248 249 249 250 250 250 251 252 253 253 254 255 256 257 257 258 258 258 259 259 259 259 259 259 259 259 259 258 258 259 259 258 258 259 259 258 258 258 258 259 260 261 261 262 261 261 261 261 262 263 264 265 266 266 265 264 265 265 266 267
254 253 252 252 252 253 254 255 256 258 258 259 259 259 259 258 257 257 256 255 255 254 254 253 253 252 252 251 250 251 251 251 251 251 251 252 253 254 254 255 256 257 258 258 259 259 259 259 259 259 259 259 258 258 258 258 258 258 257 257 257 258 258 257 257 257 259 260 260 260 260 260 260 261 261 261 261 263 264 265 265 263 263 263 264 264 265 266
254 253 253 253 253 254 255 256 257 259 260 260 260 260 259 259 258 258 257 257 257 256 256 255 255 254 254 254 254 254 254 253 253 253 253 254 254 255 256 257 258 259 259 260 260 260 260 260 260 260 260 259 258 257 257 257 257 257 257 257 257 256 256 255 256 257 259 260 260 259 259 260 261 262 263 262 261 262 263 264 263 262 262 262 262 261 262 262
254 254 254 254 255 255 256 257 259 260 261 262 262 261 260 260 259 258 258 258 258 257 257 256 256 255 256 256 255 254 255 254 254 255 255 255 256 256 257 258 259 260 261 261 262 262 262 262 262 262 261 261 259 258 258 257 257 257 257 257 256 255 255 256 256 257 258 259 259 260 260 260 262 263 264 263 262 261 261 262 262 262 263 262 260 260 259 260
255 256 256 256 257 257 258 259 260 261 262 263 263 262 262 261 260 259 258 258 258 258 258 257 257 256 257 257 256 255 255 255 255 256 256 256 256 256 257 258 259 261 262 262 263 263 264 264 264 264 263 262 261 260 259 258 258 257 258 258 257 256 256 256 257 257 257 257 259 260 261 261 261 262 263 264 263 261 259 259 260 261 262 261 261 260 260 260
257 258 258 257 257 257 258 259 260 261 262 263 263 263 262 261 260 259 258 258 258 257 257 258 257 257 257 257 256 255 254 254 254 254 255 255 256 256 257 258 259 260 261 262 263 263 263 263 264 264 263 262 262 261 260 260 260 260 260 259 258 256 255 255 255 255 256 257 258 259 260 260 260 261 262 263 263 262 260 258 257 259 259 260 260 260 260 260
258 259 259 259 259 259 259 260 261 262 263 264 265 265 264 262 261 260 259 258 258 258 257 257 257 257 257 257 256 255 255 255 255 254 255 255 256 256 257 258 258 259 260 261 262 262 263 264 264 263 262 261 262 262 263 263 263 262 259 256 254 255 254 254 254 256 258 259 259 260 261 262 261 261 262 263 263 263 262 259 257 256 256 256 257 257 257 258
259 260 261 261 261 262 262 263 263 264 265 266 266 266 266 264 263 262 260 259 258 258 258 257 257 257 256 256 255 256 256 256 255 255 255 256 255 256 256 257 258 258 259 259 260 261 262 263 263 262 262 262 264 265 264 263 261 259 257 255 254 254 256 257 257 259 262 263 261 260 260 260 260 260 262 263 263 262 262 260 257 255 253 253 253 253 253 254
260 261 262 263 263 263 264 265 265 266 267 268 268 267 266 265 264 263 262 261 260 260 259 259 258 257 257 256 256 256 256 256 256 255 255 255 255 255 256 256 257 257 258 258 259 260 261 261 261 261 262 264 267 267 265 262 260 257 258 258 257 256 258 260 259 256 256 257 258 258 258 259 259 257 258 260 261 260 260 259 257 255 253 251 249 247 248 250
261 262 263 264 265 265 266 267 267 268 269 269 268 266 265 264 264 263 263 263 262 261 261 260 260 259 259 258 257 257 257 256 257 256 255 255 255 256 256 256 256 257 257 258 259 260 260 260 260 260 262 265 265 265 264 262 260 259 260 261 262 260 257 256 256 254 251 250 253 256 259 262 262 258 255 257 257 256 256 256 255 254 253 251 248 245 244 246
262 263 264 265 266 267 267 268 269 270 270 270 267 265 263 263 263 263 263 263 262 262 261 260 260 260 260 260 260 259 259 257 256 256 255 255 256 257 257 257 257 257 258 258 258 259 260 259 260 261 262 262 261 262 263 262 262 263 263 262 262 262 260 255 253 251 250 251 251 252 258 262 265 263 256 253 254 255 255 255 251 249 249 250 250 248 247 246
263 264 265 266 267 268 268 268 269 269 270 270 267 265 263 262 262 262 263 263 262 262 262 260 260 260 262 263 262 260 260 260 258 256 256 257 257 257 257 257 258 259 259 259 258 259 260 260 260 261 261 260 260 261 262 263 264 263 263 262 262 263 262 260 258 254 251 248 245 244 251 258 263 267 264 259 256 256 256 255 254 249 246 246 248 249 251 251
264 265 266 266 267 267 268 268 269 269 270 269 268 266 264 263 262 262 262 262 262 262 262 262 261 262 264 265 264 261 260 261 261 258 257 258 257 257 257 258 259 259 258 258 258 259 261 262 262 262 262 261 261 261 262 263 263 263 263 264 264 263 263 264 264 261 257 251 245 240 242 252 258 262 266 267 264 260 257 254 257 259 255 252 252 252 254 255
265 265 266 266 266 266 267 268 269 269 270 269 269 267 266 264 263 262 262 263 262 263 263 263 263 264 264 266 267 265 263 262 262 261 259 259 258 257 258 258 258 258 258 258 259 260 262 262 262 262 262 261 261 261 262 263 263 264 264 264 264 264 266 266 264 264 263 259 254 247 242 248 254 257 261 265 266 265 263 258 256 260 262 261 260 259 259 259
265 265 265 265 265 266 266 267 268 269 269 270 269 269 268 266 265 263 263 263 263 263 264 264 266 266 266 266 267 267 267 265 265 266 264 260 259 259 258 258 258 258 258 259 260 261 262 262 261 261 261 262 262 262 262 263 263 264 264 264 264 266 266 265 264 263 263 262 260 258 253 251 254 256 257 260 263 266 267 264 259 257 258 259 260 261 260 259
266 265 265 265 265 265 266 266 267 268 269 269 269 269 268 267 266 265 265 265 265 265 265 265 266 267 267 266 266 265 267 267 268 269 267 264 262 262 261 261 260 259 259 260 260 260 260 261 261 262 262 262 262 262 261 261 263 265 266 266 266 266 265 264 264 262 261 261 261 261 260 257 258 260 259 259 263 265 265 265 264 262 261 260 259 258 258 257
267 266 266 265 265 265 265 266 266 267 268 268 269 269 268 267 266 266 266 266 266 266 266 266 267 267 267 267 267 266 266 268 269 268 267 267 266 265 264 263 263 262 262 262 259 258 258 259 260 261 262 262 263 262 261 262 263 265 266 266 266 265 265 264 264 262 261 260 261 261 259 258 260 263 263 264 265 265 264 263 264 265 266 264 262 259 258 256
267 267 266 266 265 265 265 266 266 266 267 267 268 268 268 267 267 266 266 266 266 267 267 267 267 268 268 268 268 268 267 268 269 269 267 267 267 266 265 265 265 265 265 263 261 259 259 260 261 262 262 262 262 262 262 262 263 264 265 266 266 265 265 264 264 263 261 259 260 260 259 257 258 261 264 267 266 264 264 265 265 265 265 264 263 261 259 257
267 267 266 265 265 265 265 266 266 266 267 267 267 267 267 267 267 267 266 266 266 267 268 268 268 268 268 267 268 268 268 268 269 270 270 269 268 268 267 266 267 267 266 264 264 262 261 262 262 262 262 262 262 262 263 263 263 263 263 264 265 265 264 264 265 264 262 260 259 259 259 258 258 261 263 264 264 263 264 264 264 263 263 263 263 262 261 259
266 266 266 265 264 264 265 265 266 267 267 267 267 267 267 267 267 267 266 266 266 267 268 268 267 267 267 267 266 267 267 267 268 269 269 269 269 268 268 268 268 268 266 265 264 264 263 263 263 262 262 262 262 263 264 263 263 264 264 264 264 264 264 264 264 264 264 263 261 260 259 257 258 261 262 261 262 262 262 263 262 263 263 263 263 263 262 261
266 266 266 265 264 264 265 266 266 267 267 267 267 267 267 267 267 267 267 267 267 267 267 267 268 267 267 267 267 267 267 267 268 268 268 268 268 267 267 267 267 267 266 266 267 267 266 264 263 263 263 263 263 264 264 264 264 264 264 264 264 264 264 264 263 263 263 262 262 262 261 260 258 261 262 261 261 261 260 261 261 262 263 263 264 264 264 263
266 266 266 265 264 265 265 266 267 267 267 267 267 267 267 267 268 268 268 268 268 268 267 267 268 268 268 268 268 268 268 268 268 267 268 268 268 267 267 266 266 266 266 266 267 268 268 266 265 264 264 264 264 265 265 264 263 263 263 264 264 264 264 263 262 261 261 261 262 263 264 263 261 261 263 262 261 261 260 259 259 259 260 261 261 263 264 264
267 266 266 265 265 265 266 266 267 267 268 268 267 267 267 268 268 268 268 268 268 268 268 269 269 269 269 269 269 269 269 269 268 267 268 268 268 268 267 265 265 266 267 267 266 266 266 266 265 265 265 265 265 265 264 263 263 263 263 263 264 264 263 263 262 261 261 261 262 264 264 264 263 262 263 264 263 262 262 261 259 258 257 257 258 260 262 263
268 267 267 267 266 267 267 267 268 268 268 268 268 268 268 269 269 269 269 269 269 269 269 269 270 271 270 270 269 269 270 269 269 269 268 269 269 269 268 268 267 266 266 265 265 265 265 265 264 263 263 264 264 264 263 263 264 264 263 263 264 263 263 262 262 262 262 262 263 265 265 263 263 262 262 264 264 263 262 262 260 258 258 258 258 258 260 263
268 267 268 267 267 268 268 268 268 269 269 269 269 269 270 270 271 271 270 270 271 271 270 270 271 272 273 272 271 271 270 269 268 269 268 268 268 267 267 268 269 268 267 266 265 264 264 264 264 263 262 262 263 264 264 265 264 263 263 263 262 262 261 261 262 263 264 264 265 266 266 265 263 263 263 263 263 263 262 262 262 261 260 260 260 260 260 260
267 267 268 268 268 268 269 269 269 269 270 270 270 271 271 271 272 273 272 271 272 272 272 272 272 272 272 272 272 272 271 271 269 269 268 267 267 266 266 266 266 267 267 268 267 266 264 264 263 263 262 262 262 263 264 264 263 262 262 262 261 261 261 261 263 264 264 264 265 265 265 265 264 264 264 264 263 263 263 264 264 265 264 262 261 260 259 258
266 267 268 268 268 269 269 269 270 270 271 271 271 272 273 273 273 273 273 273 273 273 273 273 273 272 272 271 272 271 270 272 271 270 269 268 267 266 267 266 265 265 265 265 265 265 264 264 264 264 263 263 262 262 262 263 263 263 263 262 262 262 263 263 263 264 264 264 263 262 262 263 263 262 263 264 264 265 265 266 266 266 266 264 263 261 259 258
266 267 267 268 269 269 269 269 270 271 272 272 273 273 273 273 273 273 274 274 273 273 273 274 273 273 272 272 272 271 270 270 271 270 270 270 269 267 267 266 266 265 264 263 262 262 261 262 263 265 264 263 262 262 262 262 263 264 264 264 264 264 264 264 263 263 263 263 262 262 262 263 263 262 261 262 263 264 265 265 265 266 266 266 265 263 262 260
266 266 267 268 268 269 269 270 271 272 273 274 274 274 273 272 271 271 273 274 274 273 273 273 273 273 273 273 273 274 273 270 269 268 268 269 270 269 268 267 265 263 262 261 261 261 262 262 264 266 264 263 263 263 262 261 260 260 262 264 265 265 264 264 263 263 262 261 261 261 262 263 263 263 262 262 261 262 263 264 264 264 264 265 264 263 262 261
266 266 267 268 269 269 270 271 272 273 273 274 274 273 272 272 270 270 271 273 274 274 274 272 271 270 271 273 274 275 276 275 273 270 267 266 266 267 269 269 267 263 260 260 260 260 262 263 265 268 268 266 266 265 264 264 262 259 259 261 263 264 265 265 265 265 263 260 258 257 257 259 261 262 261 261 261 261 261 262 262 262 262 262 262 262 262 261
267 267 267 268 269 270 271 272 272 273 273 273 273 272 272 272 272 271 271 271 272 274 275 275 274 272 272 272 272 273 274 277 278 277 274 270 266 264 264 268 271 270 265 260 258 258 259 260 262 267 271 272 270 268 266 264 263 262 260 260 261 264 266 266 266 265 264 262 259 257 254 256 260 261 260 261 262 261 260 260 260 261 260 261 261 261 261 261
267 268 268 268 268 270 271 272 271 271 272 272 272 272 272 273 273 273 272 272 271 271 272 274 276 278 277 277 276 275 274 275 277 278 278 277 273 269 265 265 269 273 274 270 265 262 261 261 261 262 267 270 272 272 270 268 265 264 263 262 263 264 265 265 265 264 265 264 263 261 257 256 261 263 262 262 261 260 260 260 260 260 260 260 260 260 260 260
266 267 268 268 268 269 270 271 271 271 272 272 272 273 273 273 272 272 272 272 272 272 272 272 273 275 276 277 277 277 277 277 277 277 277 277 277 276 273 271 270 272 274 273 272 271 269 267 265 264 264 266 269 272 273 272 270 269 268 267 267 267 267 267 265 264 263 264 264 263 259 257 261 263 262 263 262 261 261 260 260 259 259 259 259 259 259 259
266 267 268 269 269 269 270 271 272 272 271 271 271 272 273 272 272 272 272 272 272 272 273 274 273 273 273 273 274 275 277 276 276 276 277 277 278 278 277 276 275 273 271 270 271 272 272 272 270 269 268 268 269 271 272 273 274 274 274 274 272 271 270 269 268 266 265 265 265 265 262 260 262 261 260 263 264 263 262 260 260 260 260 259 259 259 260 260
266 267 267 269 270 271 270 271 272 272 272 271 271 271 270 271 272 273 274 274 273 273 275 275 275 274 274 274 274 276 276 276 274 274 276 278 279 279 279 277 276 274 273 272 272 271 271 272 273 272 271 271 270 271 271 273 275 276 277 276 276 274 272 270 270 269 269 268 267 268 267 265 266 266 264 263 264 265 265 263 262 261 261 261 261 261 261 261
268 268 268 269 271 271 271 270 269 270 271 272 273 273 272 271 272 273 273 273 273 272 272 273 274 275 275 275 275 274 274 275 274 274 275 277 278 280 279 278 276 274 274 274 274 273 273 273 273 273 272 271 270 270 271 273 274 274 275 275 276 276 275 274 273 273 273 271 269 270 270 266 267 270 268 265 265 266 268 268 267 265 263 263 263 264 264 264
268 269 269 269 269 268 268 268 268 268 268 269 272 274 275 276 276 275 274 273 272 270 268 268 270 272 275 275 275 274 274 274 275 275 274 276 277 278 279 279 278 277 276 276 276 276 276 275 275 274 274 273 271 271 271 271 272 273 274 275 275 275 275 276 277 277 275 273 272 271 270 266 265 268 269 268 269 269 269 270 271 270 269 267 266 266 265 265
267 267 267 268 267 265 264 265 266 268 269 270 272 275 278 279 279 280 281 280 279 276 275 273 272 272 274 275 276 275 276 277 277 277 276 276 276 277 278 279 279 279 279 278 278 277 277 277 277 276 275 274 273 272 271 271 271 272 273 274 274 274 275 276 276 276 275 274 273 271 270 269 268 268 268 269 269 270 270 271 272 273 273 272 269 267 265 264
266 264 263 264 265 265 265 266 267 268 270 271 273 274 274 275 277 278 279 280 280 281 281 280 278 277 276 277 278 278 278 279 279 279 278 277 277 277 278 279 280 280 280 280 280 279 278 277 276 276 275 274 274 274 274 273 272 272 273 272 272 273 274 275 274 273 272 272 272 272 272 273 273 270 268 269 270 271 272 272 272 272 271 270 269 267 266 265
265 264 263 263 265 268 270 271 272 273 273 274 274 274 273 273 274 275 276 278 280 281 281 280 280 279 278 278 278 278 279 279 279 279 279 278 278 278 279 280 282 282 281 281 280 280 279 278 277 276 275 274 274 273 274 274 274 273 272 272 271 271 271 271 271 272 272 273 274 274 274 274 273 271 270 271 272 272 271 271 271 270 269 267 267 266 266 266
267 267 267 268 269 270 272 274 275 276 277 278 278 278 277 276 276 277 279 280 280 279 279 279 280 279 279 278 278 278 278 278 278 278 278 278 279 280 280 281 281 282 282 283 282 281 280 279 278 277 276 275 274 273 273 272 272 273 273 273 272 270 268 268 268 270 272 274 275 275 275 274 272 271 271 271 271 271 272 272 271 271 270 268 267 267 266 265
270 270 271 272 273 273 273 274 275 275 277 278 278 277 277 277 279 280 280 279 279 278 278 279 280 280 280 280 280 280 279 278 278 278 278 279 280 280 281 280 280 280 282 282 283 283 282 281 279 278 276 274 273 272 271 270 271 273 273 270 268 267 267 268 270 271 271 272 273 273 274 273 272 272 272 272 272 273 273 272 272 271 269 268 267 267 266 265
Height
10661 10661 10661 10661 10661 10661 10662 10662 10663 10664 10664 10665 10666 10666 10667 10669 10670 10671 10672 10674 10676 10678 10680 10682 10685 10688 10690 10692 10694 10696 10697 10699 10701 10704 10706 10707 10708 10709 10711 10715 10717 10718 10720 10723 10725 10726 10728 10729 10731 10733 10734 10736 10739 10741 10744 10746 10750 10753 10755 10757 10755 10749 10740 10739 10745 10751 10754 10753 10752 10751 10749 10749 10753 10757 10762 10767 10773 10778 10781 10788 10794 10790 10786 10787 10788 10788 10784 10781
10655 10654 10654 10654 10654 10654 10655 10656 10656 10657 10657 10658 10659 10659 10660 10661 10662 10663 10664 10666 10668 10670 10672 10674 10676 10678 10680 10682 10684 10686 10688 10690 10693 10695 10697 10698 10700 10701 10704 10707 10709 10710 10712 10714 10716 10718 10719 10720 10722 10724 10725 10728 10730 10733 10735 10737 10741 10743 10744 10746 10741 10733 10728 10734 10742 10746 10748 10746 10745 10746 10745 10745 10746 10746 10748 10753 10759 10767 10770 10774 10780 10778 10776 10778 10780 10782 10779 10775
10649 10649 10648 10648 10648 10649 10649 10650 10651 10651 10652 10652 10653 10653 10654 10655 10656 10657 10658 10659 10661 10662 10664 10666 10667 10669 10671 10673 10675 10677 10679 10682 10685 10687 10688 10690 10692 10694 10696 10698 10701 10702 10704 10706 10707 10709 10711 10712 10713 10715 10717 10719 10721 10723 10726 10728 10731 10733 10735 10733 10726 10722 10725 10732 10737 10739 10739 10738 10737 10736 10736 10738 10739 10735 10734 10742 10748 10753 10760 10763 10765 10766 10768 10770 10771 10772 10769 10768
10644 10644 10644 10644 10644 10644 10644 10645 10645 10646 10646 10647 10648 10648 10649 10650 10651 10651 10652 10654 10655 10657 10658 10659 10660 10661 10663 10665 10667 10669 10672 10675 10677 10678 10680 10683 10685 10687 10688 10690 10692 10694 10696 10697 10698 10700 10702 10703 10705 10707 10709 10710 10712 10714 10717 10719 10721 10725 10725 10720 10716 10718 10722 10724 10727 10729 10728 10730 10730 10728 10728 10728 10728 10726 10725 10732 10737 10740 10748 10753 10754 10755 10758 10761 10761 10760 10759 10759
10639 10640 10640 10639 10639 10640 10640 10640 10641 10641 10642 10643 10643 10644 10645 10645 10646 10647 10648 10649 10650 10651 10652 10653 10654 10655 10657 10658 10661 10663 10666 10668 10669 10671 10673 10675 10677 10680 10681 10682 10684 10686 10687 10688 10690 10692 10693 10695 10697 10699 10700 10702 10704 10707 10709 10710 10714 10717 10714 10710 10710 10712 10713 10715 10718 10719 10721 10722 10722 10721 10721 10717 10715 10715 10715 10722 10728 10732 10737 10741 10743 10745 10746 10748 10750 10750 10749 10748
10636 10636 10636 10636 10636 10636 10636 10637 10637 10637 10638 10639 10640 10640 10641 10642 10643 10643 10644 10645 10646 10647 10647 10648 10649 10650 10651 10653 10656 10657 10660 10661 10662 10664 10666 10668 10670 10672 10674 10675 10676 10678 10679 10681 10682 10684 10685 10687 10689 10691 10693 10695 10697 10699 10701 10702 10706 10707 10704 10703 10703 10703 10705 10708 10709 10710 10713 10713 10712 10714 10713 10707 10702 10701 10705 10714 10723 10726 10728 10730 10732 10732 10733 10736 10739 10737 10738 10739
10632 10633 10633 10633 10633 10633 10633 10633 10633 10634 10634 10635 10636 10637 10638 10638 10639 10640 10641 10642 10642 10643 10643 10644 10645 10646 10647 10649 10651 10652 10654 10655 10656 10658 10660 10662 10663 10665 10666 10668 10669 10671 10672 10674 10675 10677 10678 10680 10681 10683 10685 10687 10689 10691 10692 10694 10696 10696 10695 10695 10695 10695 10698 10701 10700 10700 10703 10703 10704 10705 10701 10693 10689 10693 10700 10707 10713 10717 10720 10724 10723 10722 10723 10726 10726 10724 10726 10733
10629 10629 10630 10630 10630 10630 10630 10630 10630 10631 10631 10632 10633 10634 10635 10635 10636 10637 10638 10638 10639 10639 10640 10640 10641 10642 10643 10645 10646 10647 10648 10650 10651 10652 10654 10656 10657 10658 10660 10661 10663 10664 10666 10667 10668 10670 10671 10672 10674 10676 10677 10678 10680 10682 10684 10685 10685 10686 10687 10686 10687 10688 10690 10691 10690 10690 10693 10694 10695 10691 10685 10682 10682 10690 10698 10699 10700 10704 10710 10714 10715 10715 10716 10715 10713 10711 10716 10724
10626 10626 10627 10627 10627 10627 10627 10627 10627 10628 10628 10629 10630 10631 10632 10633 10633 10634 10635 10636 10636 10636 10637 10637 10638 10639 10640 10641 10642 10642 10644 10645 10646 10647 10649 10650 10651 10652 10654 10655 10656 10657 10659 10660 10662 10663 10664 10666 10667 10668 10669 10669 10671 10673 10675 10675 10675 10677 10679 10679 10680 10681 10682 10682 10680 10682 10683 10682 10680 10677 10675 10678 10680 10685 10690 10691 10691 10692 10696 10701 10705 10710 10711 10707 10704 10702 10703 10710
10623 10623 10624 10624 10624 10624 10624 10624 10625 10625 10626 10627 10628 10628 10629 10630 10631 10632 10632 10633 10633 10634 10634 10634 10635 10636 10637 10637 10638 10638 10639 10641 10642 10643 10644 10645 10646 10647 10648 10649 10650 10651 10653 10654 10655 10656 10658 10659 10659 10660 10660 10661 10663 10665 10667 10667 10666 10668 10670 10671 10672 10672 10673 10673 10672 10671 10669 10667 10669 10670 10671 10673 10674 10674 10678 10684 10684 10681 10686 10691 10697 10703 10703 10699 10698 10696 10692 10696
10619 10620 10620 10621 10621 10621 10622 10622 10622 10623 10623 10624 10625 10626 10626 10627 10628 10629 10630 10630 10630 10631 10631 10631 10632 10633 10633 10633 10634 10634 10635 10636 10637 10638 10639 10640 10641 10642 10643 10644 10645 10646 10647 10648 10649 10650 10652 10652 10652 10652 10652 10653 10656 10658 10657 10657 10658 10659 10661 10662 10663 10664 10665 10665 10662 10658 10655 10658 10665 10666 10664 10664 10665 10662 10666 10676 10677 10675 10681 10686 10691 10693 10691 10690 10691 10689 10685 10686
10616 10616 10617 10618 10618 10618 10619 10619 10620 10620 10621 10621 10622 10623 10623 10624 10625 10626 10626 10627 10627 10627 10628 10628 10628 10629 10629 10630 10630 10631 10632 10632 10633 10634 10635 10636 10636 10637 10638 10639 10640 10641 10641 10642 10643 10644 10645 10645 10645 10645 10645 10646 10649 10649 10648 10649 10651 10651 10651 10652 10655 10657 10657 10655 10652 10649 10650 10652 10657 10659 10656 10654 10655 10652 10655 10668 10674 10673 10676 10681 10683 10681 10680 10683 10684 10682 10680 10679
10612 10613 10614 10614 10615 10615 10616 10616 10617 10617 10617 10618 10619 10619 10620 10621 10622 10622 10623 10623 10624 10624 10624 10624 10625 10625 10625 10626 10627 10627 10628 10628 10629 10630 10630 10631 10632 10633 10633 10634 10635 10635 10636 10637 10637 10638 10639 10639 10638 10638 10639 10639 10641 10641 10641 10643 10644 10643 10642 10645 10649 10650 10647 10645 10645 10645 10646 10645 10647 10650 10649 10646 10646 10645 10646 10657 10668 10670 10670 10672 10672 10670 10672 10676 10676 10675 10674 10673
10609 10609 10610 10611 10611 10612 10612 10613 10614 10614 10614 10614 10615 10616 10617 10617 10618 10619 10619 10620 10620 10620 10620 10620 10621 10621 10621 10622 10623 10623 10623 10624 10625 10626 10627 10627 10628 10628 10629 10630 10630 10631 10631 10632 10633 10633 10633 10633 10632 10633 10634 10633 10633 10634 10635 10636 10636 10636 10636 10637 10641 10641 10638 10638 10640 10640 10640 10639 10638 10641 10642 10641 10641 10640 10639 10645 10656 10663 10665 10665 10662 10661 10665 10668 10668 10668 10667 10668
10605 10606 10606 10607 10608 10608 10609 10610 10610 10610 10611 10611 10611 10612 10613 10614 10614 10615 10615 10616 10616 10616 10616 10616 10616 10618 10618 10617 10618 10618 10619 10620 10621 10622 10622 10623 10623 10624 10625 10626 10626 10626 10627 10627 10628 10628 10629 10629 10628 10629 10629 10627 10627 10629 10629 10630 10630 10631 10631 10631 10634 10633 10631 10633 10635 10633 10633 10634 10634 10635 10636 10636 10636 10635 10633 10636 10644 10652 10658 10659 10656 10655 10657 10658 10660 10661 10661 10662
10602 10602 10603 10603 10604 10605 10605 10606 10607 10607 10607 10607 10607 10608 10609 10609 10610 10611 10611 10612 10612 10612 10612 10612 10612 10613 10613 10613 10613 10613 10614 10616 10617 10617 10617 10618 10619 10620 10621 10621 10622 10622 10622 10623 10624 10624 10624 10624 10624 10624 10624 10623 10623 10624 10624 10625 10625 10627 10626 10626 10626 10625 10625 10627 10628 10627 10627 10630 10630 10630 10630 10628 10630 10630 10628 10630 10635 10641 10648 10652 10652 10651 10650 10651 10653 10654 10654 10656
10598 10599 10599 10600 10600 10601 10602 10602 10603 10603 10603 10603 10603 10604 10604 10605 10605 10606 10607 10607 10607 10607 10608 10608 10608 10609 10608 10608 10607 10608 10610 10612 10612 10612 10613 10614 10614 10615 10616 10617 10617 10617 10618 10619 10619 10620 10620 10620 10620 10620 10620 10619 10619 10620 10621 10621 10622 10622 10620 10620 10620 10619 10619 10621 10623 10623 10624 10626 10626 10626 10626 10622 10624 10627 10625 10625 10629 10633 10638 10644 10647 10647 10646 10646 10648 10648 10648 10649
10595 10595 10595 10596 10596 10597 10598 10598 10599 10599 10599 10600 10600 10600 10600 10600 10601 10602 10602 10603 10602 10603 10603 10603 10603 10604 10603 10602 10602 10604 10607 10608 10607 10608 10609 10609 10609 10611 10611 10612 10612 10612 10613 10614 10615 10616 10616 10616 10616 10616 10616 10615 10616 10617 10617 10617 10617 10616 10614 10614 10616 10615 10615 10617 10621 10622 10621 10622 10621 10622 10621 10617 10619 10624 10621 10620 10624 10626 10630 10635 10639 10641 10641 10642 10644 10644 10644 10645
10591 10591 10592 10592 10593 10593 10594 10595 10595 10595 10596 10596 10596 10595 10595 10595 10596 10597 10597 10598 10598 10598 10598 10598 10599 10598 10597 10597 10598 10601 10603 10603 10603 10604 10604 10604 10604 10605 10607 10607 10607 10607 10608 10610 10611 10612 10611 10611 10611 10612 10612 10613 10614 10613 10613 10613 10612 10611 10610 10611 10612 10612 10613 10615 10617 10618 10618 10617 10616 10617 10616 10612 10614 10620 10618 10616 10619 10621 10624 10629 10632 10634 10636 10638 10640 10640 10640 10641
10588 10588 10588 10588 10589 10590 10590 10591 10591 10591 10592 10592 10592 10592 10591 10591 10592 10592 10593 10594 10594 10594 10594 10595 10594 10594 10592 10592 10595 10597 10598 10598 10598 10598 10599 10599 10600 10601 10602 10602 10602 10602 10604 10606 10607 10607 10606 10605 10606 10608 10610 10611 10610 10608 10608 10608 10607 10607 10607 10608 10608 10608 10611 10612 10613 10614 10614 10614 10614 10614 10613 10608 10608 10614 10615 10613 10615 10618 10620 10624 10626 10628 10629 10631 10634 10636 10637 10638
10584 10585 10585 10585 10585 10586 10586 10587 10587 10587 10588 10588 10588 10588 10587 10588 10588 10588 10589 10589 10589 10590 10590 10590 10590 10589 10588 10588 10592 10594 10593 10592 10592 10592 10594 10594 10596 10597 10597 10597 10597 10598 10599 10601 10603 10601 10600 10600 10602 10605 10607 10606 10605 10605 10604 10604 10604 10604 10604 10605 10604 10604 10606 10608 10610 10611 10611 10612 10612 10612 10610 10605 10603 10607 10609 10610 10612 10614 10617 10620 10622 10623 10624 10625 10628 10630 10632 10634
10581 10581 10581 10582 10582 10582 10582 10583 10583 10583 10584 10584 10584 10584 10584 10584 10584 10584 10585 10585 10585 10585 10586 10586 10586 10585 10585 10585 10588 10590 10588 10586 10586 10587 10589 10590 10592 10592 10591 10592 10592 10593 10595 10596 10597 10596 10594 10595 10598 10601 10602 10600 10601 10601 10600 10599 10600 10600 10600 10601 10601 10601 10602 10604 10606 10607 10609 10610 10610 10610 10607 10602 10601 10601 10600 10605 10609 10611 10613 10615 10616 10616 10619 10621 10623 10625 10627 10630
10577 10577 10578 10578 10578 10578 10578 10579 10579 10579 10580 10580 10580 10580 10581 10581 10581 10581 10581 10581 10581 10581 10581 10582 10582 10582 10583 10582 10583 10585 10584 10582 10581 10582 10585 10586 10587 10586 10585 10587 10588 10588 10589 10590 10591 10592 10590 10591 10594 10596 10596 10595 10596 10597 10595 10594 10595 10595 10596 10597 10597 10597 10598 10600 10602 10603 10605 10606 10606 10607 10605 10602 10601 10598 10594 10597 10602 10606 10608 10610 10610 10609 10611 10616 10618 10621 10623 10625
10573 10574 10574 10574 10574 10574 10574 10574 10575 10576 10576 10576 10576 10577 10577 10577 10577 10577 10577 10577 10577 10577 10578 10578 10578 10579 10580 10579 10579 10580 10580 10578 10576 10578 10582 10582 10581 10581 10581 10582 10583 10582 10583 10584 10587 10588 10586 10586 10589 10590 10590 10589 10590 10591 10591 10589 10589 10589 10591 10592 10592 10592 10594 10596 10598 10599 10600 10601 10602 10602 10603 10602 10599 10596 10593 10590 10594 10600 10603 10606 10608 10604 10605 10609 10613 10616 10618 10620
10569 10569 10570 10570 10570 10570 10570 10570 10571 10571 10572 10572 10572 10572 10573 10573 10573 10573 10572 10572 10573 10573 10574 10574 10575 10575 10576 10577 10576 10576 10576 10574 10573 10574 10577 10578 10576 10576 10576 10577 10578 10577 10578 10581 10583 10584 10581 10580 10583 10584 10584 10584 10584 10586 10586 10584 10583 10583 10585 10586 10587 10588 10589 10590 10593 10595 10596 10596 10596 10596 10599 10599 10595 10592 10590 10587 10589 10595 10597 10599 10601 10600 10600 10605 10608 10610 10612 10615
10564 10565 10565 10565 10566 10566 10566 10566 10566 10567 10568 10568 10568 10568 10568 10568 10568 10568 10568 10568 10568 10569 10570 10571 10571 10570 10571 10572 10572 10573 10572 10570 10570 10570 10571 10573 10573 10572 10572 10572 10572 10572 10574 10578 10580 10578 10575 10575 10577 10578 10578 10578 10578 10579 10579 10579 10578 10578 10578 10580 10582 10582 10582 10584 10586 10589 10591 10591 10590 10590 10592 10593 10591 10587 10583 10584 10589 10591 10591 10593 10593 10593 10596 10600 10603 10605 10607 10610
10560 10560 10561 10561 10561 10561 10561 10561 10562 10562 10563 10563 10564 10564 10564 10564 10564 10564 10564 10563 10563 10563 10565 10566 10566 10566 10567 10567 10567 10569 10568 10566 10566 10565 10565 10568 10568 10567 10568 10568 10567 10568 10570 10573 10573 10572 10571 10571 10572 10573 10572 10572 10572 10572 10572 10574 10574 10573 10572 10573 10575 10575 10575 10577 10579 10582 10584 10585 10585 10584 10585 10588 10589 10581 10575 10581 10587 10585 10584 10586 10587 10587 10589 10592 10595 10598 10599 10602
10555 10555 10555 10556 10556 10556 10556 10556 10557 10557 10558 10558 10559 10559 10559 10559 10559 10559 10560 10559 10557 10558 10560 10561 10561 10561 10562 10562 10562 10563 10563 10562 10561 10560 10561 10563 10562 10562 10563 10563 10562 10563 10566 10568 10566 10566 10567 10567 10568 10568 10566 10566 10565 10564 10566 10569 10569 10568 10567 10567 10567 10568 10568 10569 10571 10573 10576 10579 10579 10576 10576 10584 10587 10577 10570 10577 10580 10577 10577 10579 10581 10582 10582 10583 10585 10588 10591 10594
10549 10549 10550 10550 10551 10551 10551 10551 10551 10552 10553 10554 10554 10553 10553 10553 10554 10554 10554 10553 10553 10553 10555 10555 10555 10556 10556 10557 10557 10557 10557 10558 10557 10555 10555 10557 10557 10557 10558 10558 10558 10559 10561 10562 10560 10561 10563 10563 10564 10562 10560 10559 10558 10558 10561 10563 10563 10561 10562 10561 10560 10560 10561 10562 10564 10565 10568 10572 10571 10567 10569 10579 10581 10572 10567 10571 10570 10570 10572 10573 10574 10573 10574 10576 10577 10579 10582 10585
10544 10544 10544 10545 10545 10546 10546 10546 10546 10546 10547 10548 10548 10548 10548 10548 10548 10549 10549 10548 10549 10549 10549 10549 10549 10550 10550 10550 10552 10552 10551 10552 10552 10551 10549 10550 10551 10551 10551 10552 10553 10553 10555 10556 10554 10555 10558 10559 10558 10557 10554 10553 10552 10552 10555 10557 10556 10555 10555 10555 10554 10553 10554 10556 10558 10557 10560 10564 10560 10558 10564 10573 10575 10565 10561 10564 10562 10563 10566 10566 10567 10566 10566 10570 10570 10570 10573 10576
10539 10538 10539 10539 10540 10540 10541 10541 10541 10541 10542 10542 10542 10542 10542 10542 10543 10543 10543 10543 10543 10544 10544 10543 10542 10543 10544 10544 10545 10546 10546 10546 10547 10546 10544 10544 10545 10545 10546 10546 10546 10546 10547 10549 10549 10549 10552 10552 10552 10550 10548 10546 10546 10547 10548 10550 10550 10548 10548 10548 10547 10546 10548 10549 10550 10551 10554 10555 10550 10551 10558 10565 10568 10559 10551 10555 10556 10556 10558 10558 10560 10561 10561 10563 10563 10562 10564 10568
10533 10533 10533 10534 10534 10535 10535 10535 10535 10536 10536 10536 10536 10537 10537 10537 10537 10537 10537 10538 10537 10537 10538 10537 10536 10536 10537 10537 10538 10539 10539 10540 10542 10540 10537 10537 10538 10538 10539 10539 10539 10539 10541 10543 10544 10544 10544 10544 10544 10543 10541 10540 10541 10540 10541 10542 10542 10541 10542 10541 10540 10540 10540 10541 10542 10543 10546 10547 10544 10547 10552 10557 10560 10553 10543 10545 10548 10548 10549 10550 10554 10555 10555 10556 10556 10555 10557 10560
10528 10528 10528 10529 10529 10529 10530 10530 10530 10530 10530 10530 10531 10531 10531 10531 10532 10531 10531 10532 10531 10530 10531 10531 10530 10530 10530 10531 10532 10533 10533 10533 10534 10533 10532 10531 10530 10530 10530 10532 10533 10533 10535 10537 10537 10538 10537 10535 10535 10535 10533 10533 10534 10533 10532 10533 10534 10534 10534 10534 10533 10532 10532 10532 10532 10534 10539 10541 10540 10542 10546 10550 10550 10545 10538 10536 10538 10539 10539 10541 10545 10547 10546 10549 10551 10551 10552 10555
10523 10523 10523 10524 10524 10524 10525 10524 10524 10525 10524 10525 10525 10525 10525 10526 10526 10524 10525 10525 10524 10524 10525 10525 10524 10523 10523 10524 10525 10526 10526 10526 10526 10526 10525 10524 10523 10523 10521 10522 10525 10527 10528 10530 10530 10530 10529 10527 10526 10526 10527 10526 10525 10523 10523 10525 10527 10526 10526 10527 10526 10522 10522 10523 10523 10527 10532 10535 10536 10536 10539 10542 10541 10537 10532 10528 10527 10529 10530 10531 10534 10536 10539 10543 10546 10548 10550 10550
10518 10518 10518 10519 10519 10519 10519 10519 10519 10519 10519 10519 10519 10519 10520 10520 10519 10517 10517 10519 10518 10517 10518 10519 10519 10516 10515 10516 10517 10519 10518 10517 10519 10519 10518 10518 10517 10516 10515 10515 10517 10518 10520 10521 10523 10523 10522 10519 10516 10517 10519 10519 10516 10515 10515 10517 10518 10516 10517 10518 10516 10511 10511 10514 10517 10520 10525 10529 10531 10530 10529 10533 10532 10528 10525 10521 10518 10519 10520 10522 10523 10527 10533 10538 10539 10543 10547 10546
10513 10513 10513 10513 10513 10514 10514 10513 10514 10513 10513 10514 10514 10514 10514 10514 10514 10510 10509 10512 10513 10510 10510 10511 10512 10511 10509 10508 10508 10512 10510 10508 10512 10512 10509 10510 10510 10508 10508 10509 10510 10511 10512 10513 10514 10514 10513 10510 10507 10508 10511 10510 10509 10509 10508 10507 10506 10506 10508 10507 10504 10501 10502 10508 10511 10514 10518 10522 10525 10524 10521 10522 10522 10519 10514 10509 10508 10509 10512 10515 10517 10519 10525 10528 10531 10535 10538 10537
10508 10508 10508 10508 10508 10508 10508 10508 10508 10508 10508 10508 10508 10509 10508 10508 10508 10504 10501 10506 10506 10504 10503 10504 10504 10503 10503 10501 10500 10504 10503 10501 10503 10503 10501 10502 10502 10501 10501 10502 10504 10505 10506 10506 10506 10506 10504 10501 10499 10499 10502 10501 10501 10501 10499 10497 10496 10496 10497 10496 10494 10493 10495 10501 10505 10507 10510 10514 10517 10515 10513 10513 10512 10509 10504 10498 10498 10501 10505 10508 10510 10511 10513 10515 10519 10524 10526 10525
10502 10503 10503 10502 10502 10503 10503 10503 10503 10502 10502 10502 10502 10503 10502 10502 10502 10497 10495 10498 10499 10498 10498 10497 10496 10495 10495 10495 10493 10495 10497 10496 10495 10495 10495 10494 10494 10495 10494 10495 10497 10498 10499 10499 10499 10498 10496 10495 10493 10492 10493 10493 10492 10493 10491 10490 10490 10489 10487 10486 10486 10486 10487 10491 10495 10499 10501 10503 10506 10505 10505 10506 10502 10497 10495 10492 10492 10494 10497 10499 10500 10502 10503 10503 10507 10512 10513 10512
10497 10498 10497 10497 10497 10497 10497 10497 10497 10497 10496 10496 10495 10496 10495 10495 10496 10493 10490 10491 10491 10491 10492 10492 10490 10489 10488 10488 10487 10487 10489 10490 10489 10489 10489 10488 10487 10487 10487 10487 10489 10491 10492 10492 10492 10491 10489 10490 10488 10485 10484 10485 10485 10484 10483 10483 10484 10483 10480 10477 10477 10477 10477 10480 10484 10489 10493 10494 10496 10497 10498 10497 10490 10485 10484 10482 10483 10487 10489 10490 10491 10492 10493 10492 10494 10498 10500 10499
10491 10492 10492 10491 10490 10490 10491 10492 10491 10490 10490 10490 10489 10489 10489 10488 10488 10488 10487 10485 10484 10484 10485 10486 10485 10484 10483 10483 10482 10481 10480 10480 10482 10483 10483 10483 10482 10481 10480 10479 10480 10483 10486 10487 10486 10485 10483 10484 10484 10479 10476 10477 10478 10476 10475 10474 10474 10475 10474 10472 10470 10468 10469 10472 10475 10479 10482 10483 10486 10489 10492 10490 10481 10474 10472 10470 10474 10480 10480 10480 10480 10481 10483 10482 10482 10484 10487 10487
10485 10486 10486 10485 10484 10484 10485 10486 10485 10484 10484 10484 10483 10482 10482 10481 10481 10482 10481 10480 10479 10478 10477 10477 10478 10478 10478 10478 10478 10477 10476 10474 10474 10474 10474 10475 10476 10476 10476 10474 10472 10474 10478 10480 10480 10478 10477 10478 10479 10476 10471 10470 10469 10466 10465 10465 10464 10464 10465 10466 10465 10463 10463 10464 10467 10468 10467 10469 10474 10478 10485 10486 10473 10463 10462 10462 10466 10469 10469 10469 10469 10469 10472 10473 10472 10473 10474 10476
10479 10479 10480 10478 10478 10479 10480 10479 10479 10479 10478 10478 10477 10476 10476 10475 10474 10475 10475 10475 10475 10474 10473 10472 10471 10471 10471 10471 10471 10470 10471 10471 10469 10467 10466 10465 10466 10468 10470 10470 10469 10468 10468 10469 10470 10470 10470 10471 10472 10472 10468 10464 10461 10457 10455 10454 10454 10454 10456 10459 10460 10457 10455 10455 10457 10459 10456 10458 10463 10465 10475 10481 10467 10455 10454 10453 10455 10457 10458 10459 10459 10460 10461 10462 10462 10462 10462 10464
10473 10474 10473 10471 10472 10475 10474 10472 10473 10473 10473 10472 10470 10470 10471 10470 10469 10469 10469 10469 10469 10469 10468 10467 10467 10466 10466 10465 10464 10463 10464 10466 10465 10462 10460 10459 10457 10457 10460 10463 10464 10464 10461 10459 10460 10461 10461 10461 10463 10464 10462 10460 10456 10451 10447 10443 10443 10446 10447 10450 10451 10449 10446 10444 10446 10449 10447 10450 10453 10453 10464 10473 10461 10449 10446 10442 10443 10446 10447 10448 10448 10449 10450 10450 10450 10450 10450 10451
10468 10469 10467 10465 10466 10469 10468 10467 10467 10467 10467 10466 10465 10465 10465 10464 10463 10463 10464 10464 10464 10463 10462 10462 10461 10461 10461 10459 10458 10458 10458 10460 10460 10457 10454 10453 10450 10448 10451 10455 10455 10454 10452 10451 10453 10453 10452 10452 10455 10455 10454 10454 10451 10445 10440 10435 10434 10438 10439 10439 10440 10437 10435 10433 10433 10436 10439 10444 10443 10441 10453 10461 10450 10441 10439 10434 10433 10434 10433 10436 10438 10438 10439 10440 10440 10439 10439 10440
10463 10463 10462 10459 10461 10462 10463 10462 10461 10460 10460 10460 10460 10460 10460 10459 10458 10458 10458 10458 10458 10458 10456 10455 10455 10454 10454 10453 10453 10453 10452 10453 10454 10453 10449 10447 10444 10441 10442 10445 10446 10443 10442 10443 10445 10447 10446 10445 10446 10446 10445 10446 10442 10437 10434 10430 10429 10432 10432 10430 10427 10423 10422 10422 10422 10425 10430 10433 10432 10432 10442 10447 10439 10433 10431 10426 10423 10421 10420 10423 10427 10428 10431 10431 10430 10429 10429 10430
10458 10458 10456 10455 10455 10456 10456 10456 10456 10455 10454 10454 10454 10454 10454 10454 10453 10453 10453 10452 10452 10453 10451 10449 10449 10448 10448 10448 10447 10447 10446 10445 10446 10447 10445 10442 10439 10434 10431 10433 10435 10434 10433 10434 10435 10437 10439 10439 10437 10436 10436 10436 10433 10429 10427 10425 10424 10425 10424 10423 10419 10411 10407 10408 10411 10416 10419 10418 10422 10426 10428 10432 10433 10426 10417 10413 10413 10413 10412 10413 10414 10417 10421 10422 10422 10421 10420 10420
10454 10452 10450 10450 10450 10450 10450 10450 10450 10450 10449 10450 10450 10448 10447 10448 10447 10447 10446 10445 10446 10447 10446 10444 10444 10443 10442 10441 10440 10439 10439 10439 10439 10440 10439 10437 10433 10428 10423 10421 10422 10423 10424 10425 10427 10427 10428 10429 10427 10427 10426 10425 10423 10422 10420 10419 10418 10417 10416 10417 10412 10402 10396 10397 10400 10405 10404 10403 10412 10417 10412 10416 10426 10419 10406 10403 10403 10404 10406 10406 10404 10405 10408 10412 10413 10412 10410 10408
10448 10447 10445 10444 10444 10444 10445 10445 10445 10445 10444 10444 10446 10444 10442 10441 10441 10440 10439 10437 10436 10438 10438 10438 10438 10438 10436 10433 10431 10432 10433 10433 10432 10431 10430 10428 10425 10421 10417 10413 10412 10413 10413 10414 10417 10418 10419 10420 10417 10416 10416 10413 10412 10412 10411 10411 10411 10411 10410 10409 10403 10393 10389 10391 10392 10392 10389 10389 10398 10403 10398 10403 10416 10412 10399 10394 10394 10395 10397 10398 10398 10398 10398 10399 10399 10399 10398 10397
10442 10442 10441 10439 10438 10438 10439 10439 10439 10439 10439 10439 10441 10440 10438 10437 10436 10435 10434 10431 10429 10430 10430 10429 10430 10430 10428 10426 10424 10425 10426 10426 10424 10422 10420 10418 10417 10415 10411 10406 10403 10403 10403 10403 10404 10406 10409 10410 10406 10406 10406 10404 10402 10402 10401 10400 10402 10405 10405 10400 10394 10387 10383 10381 10380 10378 10376 10377 10383 10388 10389 10395 10402 10398 10389 10386 10387 10388 10389 10389 10390 10389 10388 10387 10385 10384 10386 10387
10437 10437 10436 10435 10433 10432 10433 10433 10433 10433 10432 10433 10435 10433 10432 10431 10430 10430 10428 10426 10425 10423 10421 10420 10421 10421 10420 10419 10418 10418 10418 10418 10416 10414 10411 10409 10408 10407 10404 10401 10396 10392 10391 10392 10392 10393 10395 10397 10396 10395 10395 10394 10393 10394 10392 10389 10391 10396 10397 10391 10385 10381 10377 10371 10368 10365 10364 10366 10371 10374 10379 10386 10387 10382 10380 10379 10378 10378 10378 10378 10378 10376 10376 10376 10375 10375 10376 10378
10432 10432 10431 10430 10428 10427 10428 10427 10427 10427 10426 10427 10427 10425 10423 10423 10423 10423 10422 10420 10417 10414 10412 10412 10412 10412 10412 10410 10410 10411 10411 10409 10407 10406 10403 10401 10400 10399 10397 10394 10389 10383 10379 10378 10378 10380 10382 10383 10383 10382 10384 10384 10383 10384 10384 10380 10381 10387 10388 10381 10374 10369 10365 10363 10360 10358 10356 10358 10360 10361 10366 10373 10373 10370 10370 10370 10367 10365 10366 10366 10366 10366 10365 10365 10365 10366 10368 10369
10428 10427 10425 10424 10421 10421 10422 10422 10421 10422 10421 10420 10419 10417 10415 10415 10416 10416 10414 10412 10408 10405 10404 10405 10404 10403 10402 10400 10400 10401 10401 10399 10397 10397 10395 10394 10393 10391 10388 10385 10381 10378 10374 10368 10364 10364 10366 10369 10370 10368 10370 10372 10372 10374 10374 10370 10374 10382 10379 10368 10360 10354 10354 10355 10354 10352 10350 10350 10351 10351 10352 10356 10358 10358 10359 10358 10356 10356 10355 10355 10356 10355 10354 10354 10355 10356 10357 10359